Location: Street
(51.1247°N, 2.7429°W)
Time: 17:58:51
(UTC+00:00)

Vanguard 1 Rocket - Visible Passes

Search period start: 04 December 2020 00:00
Search period end: 14 December 2020 00:00
Orbit: 656 x 4221 km, 34.3° (Epoch: 03 December)

Date Brightness Start Highest point End Pass type
(mag) Time Alt. Az. Time Alt. Az. Time Alt. Az.
04 Dec 10.6 02:12:20 46° SSE 02:12:20 46° SSE 02:26:15 10° ESE visible
04 Dec 10.5 04:29:36 34° SW 04:36:50 42° SSW 04:50:39 10° SE visible
04 Dec 10.8 06:49:57 10° W 07:01:57 20° SW 07:10:33 10° S visible
04 Dec11.722:47:44E22:47:44E22:05:11SSWvisible
05 Dec 11.0 01:05:00 32° ESE 01:05:00 32° ESE 01:14:14 10° E visible
05 Dec 10.5 03:22:16 47° SSW 03:23:55 47° SSW 03:40:08 10° SE visible
05 Dec 10.6 05:39:33 19° WSW 05:50:48 30° SW 06:02:27 10° SSE visible
05 Dec 11.4 23:57:41 18° E 23:57:41 18° E 00:01:24 10° E visible
06 Dec 10.6 02:14:57 46° SSE 02:14:57 46° SSE 02:28:51 10° ESE visible
06 Dec 10.5 04:32:13 34° WSW 04:38:46 39° SSW 04:52:59 10° SE visible
06 Dec 11.0 06:53:17 10° W 07:03:35 16° SW 07:11:28 10° SSW visible
06 Dec11.622:50:22E22:50:22E22:08:10SSWvisible
07 Dec 11.0 01:07:38 33° ESE 01:07:38 33° ESE 01:16:51 10° ESE visible
07 Dec 10.5 03:24:55 46° SSW 03:25:54 46° SSW 03:42:35 10° SE visible
07 Dec 10.8 05:42:12 19° WSW 05:52:30 27° SW 06:04:13 10° S visible
07 Dec 11.4 20:59:20 10° S 21:01:03 13° S 21:01:03 13° S visible
08 Dec 11.4 00:00:21 18° ESE 00:00:21 18° ESE 00:04:02 10° E visible
08 Dec 10.6 02:17:38 45° SSE 02:17:38 45° SSE 02:31:22 10° ESE visible
08 Dec 10.6 04:34:54 33° WSW 04:40:35 36° SSW 04:55:05 10° SSE visible
08 Dec 11.1 06:57:36 10° W 07:05:02 13° WSW 07:11:16 10° SW visible
08 Dec 11.4 19:53:07 10° SSE 19:53:57 11° SSE 19:53:57 11° SSE visible
08 Dec 11.4 22:09:44 10° SSW 22:53:05 - E 22:11:14 13° SSW visible
09 Dec 11.0 01:10:21 32° SE 01:10:21 32° SE 01:19:21 10° ESE visible
09 Dec 10.6 03:27:38 44° SSW 03:27:47 44° SSW 03:44:52 10° SE visible
09 Dec 10.9 05:44:55 18° WSW 05:54:04 23° SW 06:05:35 10° S visible
09 Dec 11.2 21:00:01 10° S 21:04:09 18° S 21:04:09 18° S visible
10 Dec 11.5 00:03:06 17° ESE 00:03:06 17° ESE 00:06:32 10° E visible
10 Dec 10.7 02:20:23 43° SSE 02:20:23 43° SSE 02:33:45 10° SE visible
10 Dec 10.7 04:37:40 31° SW 04:42:16 33° SW 04:56:57 10° SSE visible
10 Dec 11.2 19:52:16 10° SSE 19:57:05 16° SSE 19:57:05 16° SSE visible
10 Dec 11.3 22:11:20 10° SSW 22:55:53 - E 22:14:22 17° SSW visible
11 Dec 11.1 01:13:10 31° SE 01:13:10 31° SE 01:21:46 10° ESE visible
11 Dec 10.6 03:30:27 41° SSW 03:30:27 41° SSW 03:46:59 10° SE visible
11 Dec 11.1 05:47:44 16° WSW 05:55:30 19° SW 06:06:22 10° SSW visible
11 Dec 11.0 21:01:11 10° SSW 21:07:18 23° S 21:07:18 23° S visible
12 Dec 11.5 00:05:58 16° ESE 00:05:58 16° ESE 00:08:57 10° ESE visible
12 Dec 10.8 02:23:15 40° SSE 02:23:15 40° SSE 02:35:59 10° SE visible
12 Dec 10.9 04:40:32 28° SW 04:43:49 29° SW 04:58:30 10° S visible
12 Dec 11.0 19:52:34 10° S 20:00:13 21° SSE 20:00:13 21° SSE visible
12 Dec 11.2 22:13:12 10° SW 22:58:48 - E 22:17:31 21° SSW visible
13 Dec 11.1 01:16:05 29° SE 01:16:05 29° SE 01:24:04 10° ESE visible
13 Dec 10.7 03:33:22 38° SSW 03:33:22 38° SSW 03:48:52 10° SSE visible
13 Dec 11.2 05:50:40 14° WSW 05:56:49 16° WSW 06:06:16 10° SSW visible
13 Dec 11.1 18:47:15 10° SE 18:53:07 13° SE 18:53:07 13° SE visible
13 Dec 10.9 21:02:46 10° SSW 21:10:24 27° S 21:10:24 27° S visible
